Wind_Speed
29 27 26 24 22 21 20 20 18 17 15 15 14 14 12 11 12 12 12 11 10 10 10 11 11 11 11 12 12 12 13 15 16 16 17 17 16 15 14 14 14 13 13 12 12 12 10 8 8 8 9 9 7 7 10 12 14 14 14 14 13 13 14 15 13 13 21 29 31 32 31 31 32 32 33 35 37 38 37 37 39 38 38 36 35
30 28 25 23 23 22 21 20 19 17 17 16 16 15 13 13 14 14 13 11 10 11 11 12 12 11 11 12 12 12 14 15 16 17 17 17 17 16 14 13 13 14 14 14 14 13 11 11 11 10 10 11 9 7 9 12 13 13 13 12 13 14 14 15 15 15 18 26 32 33 32 31 31 32 32 33 35 36 35 36 38 39 38 37 35
30 28 26 24 23 23 21 21 20 18 18 17 17 16 15 16 16 15 13 11 11 11 12 13 13 13 13 14 13 13 14 14 15 16 17 18 18 17 15 13 15 16 16 16 15 13 12 13 13 13 12 13 11 9 10 12 12 12 11 11 12 15 15 15 16 17 19 23 29 32 32 31 32 33 33 33 34 34 34 36 37 39 39 37 36
31 29 27 25 24 22 21 21 21 20 19 18 18 17 16 17 17 15 12 11 12 13 13 13 13 14 15 15 15 15 16 16 16 16 17 17 15 16 17 17 17 17 16 17 17 16 15 16 16 15 14 14 14 12 12 13 13 12 12 12 13 15 18 18 18 19 20 22 27 32 32 31 32 34 33 33 34 33 34 35 35 36 38 38 37
31 30 28 27 25 23 21 21 21 21 20 19 19 18 16 16 14 11 10 11 12 14 13 13 13 13 15 15 16 16 16 15 15 14 15 14 14 17 19 17 16 17 16 17 18 18 18 18 19 17 16 16 15 15 14 15 15 14 14 15 16 17 19 21 22 22 22 23 26 32 33 31 32 34 31 30 33 32 32 33 34 35 37 38 38
33 31 29 28 26 24 23 23 22 21 20 19 19 18 16 15 12 8 8 9 9 10 12 12 13 14 17 17 16 14 13 12 13 14 14 14 14 15 15 14 15 17 17 17 18 18 18 19 20 18 17 18 19 18 17 15 16 16 16 17 19 19 21 23 24 24 23 25 26 29 32 31 30 32 31 29 30 30 29 30 31 33 35 36 37
34 33 31 28 26 26 26 26 24 22 21 19 18 16 15 15 13 9 8 8 7 8 10 12 15 17 16 14 13 12 13 13 14 14 14 13 12 10 11 12 13 15 15 16 17 17 19 21 21 21 22 23 22 20 17 16 17 19 19 20 21 21 22 24 26 26 24 25 26 27 29 29 29 31 32 31 30 29 27 25 25 29 32 35 37
36 34 30 28 27 29 29 27 25 23 21 20 19 17 16 16 14 12 11 12 11 12 13 14 16 16 13 12 13 14 15 16 14 12 12 10 8 8 10 11 11 12 14 15 15 16 19 21 23 24 23 20 19 18 18 18 21 22 22 23 23 23 23 24 26 26 25 24 25 26 27 28 28 29 30 29 25 24 25 23 23 27 31 33 37
37 33 30 30 30 31 31 29 25 23 20 19 18 18 17 17 15 13 14 14 14 16 16 15 15 15 14 14 14 14 15 15 13 11 10 8 7 8 9 9 10 11 13 14 16 17 19 20 22 23 20 19 22 24 24 23 23 23 24 26 27 26 25 25 26 26 25 23 23 25 24 24 26 27 27 25 23 24 27 26 24 28 30 31 36
37 34 32 31 31 32 32 30 26 24 22 20 19 18 18 18 16 15 15 15 16 18 18 17 15 16 16 15 13 13 14 13 11 11 11 10 9 9 10 11 11 11 12 14 16 18 19 20 21 21 21 24 27 25 24 24 24 23 24 25 26 26 27 27 26 27 25 22 22 24 21 21 26 27 26 27 29 28 29 28 25 26 26 25 28
37 35 33 30 29 31 32 30 27 26 23 22 21 21 20 19 17 16 16 17 18 19 20 18 17 16 16 15 14 13 14 14 13 13 12 10 10 10 12 13 14 14 14 15 17 19 20 21 21 21 23 24 24 22 21 22 22 23 23 23 23 24 26 27 27 28 26 24 24 24 22 23 27 30 29 30 30 29 28 28 27 24 21 17 17
34 32 31 29 28 30 32 30 29 27 24 22 22 21 20 18 17 17 17 18 19 20 21 20 17 16 16 15 15 14 15 16 15 13 11 10 10 10 12 14 15 17 18 17 17 18 19 21 22 21 22 23 22 21 20 19 20 21 21 22 22 23 25 27 28 29 29 27 26 26 26 27 29 31 30 29 30 30 28 28 28 24 21 18 16
32 29 29 29 28 30 32 31 29 26 23 23 23 22 20 19 18 19 19 19 20 21 21 20 17 17 16 17 17 16 16 16 15 12 11 10 9 9 12 15 17 19 20 20 19 18 19 20 20 21 22 23 22 20 20 20 21 20 18 19 22 24 25 26 27 28 30 29 28 28 30 32 31 32 34 32 31 30 28 27 28 26 23 22 23
30 27 28 30 30 31 32 31 28 25 24 24 24 23 22 21 20 20 21 21 21 21 21 19 18 19 19 18 17 16 16 15 13 12 11 11 10 11 14 17 19 20 20 20 20 18 18 19 19 21 21 20 17 18 19 19 18 18 17 18 21 22 23 25 27 29 30 30 29 32 35 37 37 38 40 38 35 34 30 28 28 27 25 25 28
29 28 30 32 31 30 31 30 28 27 26 26 26 26 25 24 22 22 21 20 20 21 20 19 19 20 19 19 17 17 16 14 12 12 12 12 11 12 15 18 20 20 20 19 19 18 18 18 18 19 18 14 12 13 15 15 15 16 17 18 19 22 24 26 28 31 33 33 34 36 39 41 42 43 44 42 39 38 36 34 33 31 29 29 28
30 31 32 32 31 31 32 32 29 28 27 28 29 29 28 26 23 22 22 20 20 20 20 19 19 18 18 18 17 16 16 12 11 13 13 11 10 12 16 19 20 21 20 19 17 17 18 18 19 18 15 11 9 11 12 12 13 15 16 17 19 22 26 28 30 32 35 37 38 40 42 44 45 46 47 45 43 42 38 35 35 33 29 25 23
32 33 33 32 32 32 33 33 31 29 29 30 31 31 30 28 24 23 23 22 21 22 21 20 19 18 16 12 7 8 10 8 11 14 12 9 10 14 18 20 20 20 20 19 18 18 19 19 20 19 14 10 10 10 10 12 15 15 15 17 20 24 27 30 32 34 36 38 40 41 42 44 45 46 46 43 41 42 37 31 31 30 23 16 13
33 34 34 33 32 33 34 33 32 31 31 32 32 31 30 28 25 25 24 23 24 25 23 19 16 14 10 4 1 3 4 4 7 9 8 7 11 14 17 19 19 18 18 18 18 19 20 20 18 15 10 9 10 10 12 16 17 14 14 18 21 23 27 31 34 37 39 40 40 41 41 42 43 44 42 36 30 33 38 36 33 29 21 15 11
33 33 34 34 34 34 35 34 33 33 34 34 33 31 29 28 26 26 26 25 26 25 21 15 11 8 6 5 5 4 3 3 5 5 5 9 11 12 13 15 16 16 16 18 19 20 20 19 15 10 7 9 11 12 14 17 14 12 14 18 19 20 26 31 34 36 38 40 41 42 42 42 43 43 40 34 23 22 36 41 39 30 22 20 17
33 35 35 35 35 35 35 34 34 34 34 34 32 30 27 23 20 21 21 21 21 19 15 10 7 6 6 7 6 5 5 6 8 8 11 13 11 10 11 11 13 15 16 18 20 21 20 17 12 8 8 11 14 15 14 12 10 11 15 17 16 19 25 30 31 32 35 38 40 41 42 42 42 41 38 33 24 16 29 38 39 35 28 24 21
32 36 36 35 34 34 34 34 34 34 33 32 29 24 19 13 9 7 6 6 9 10 8 5 3 4 5 6 6 8 10 12 12 13 14 13 9 8 8 9 12 15 17 18 19 19 18 15 11 9 11 15 17 15 11 9 10 13 16 17 16 17 22 27 29 31 34 36 38 39 40 40 41 41 38 35 29 16 23 33 36 36 34 30 24
35 37 36 34 33 33 34 33 32 30 28 24 19 13 9 7 6 4 2 3 5 5 2 1 2 4 4 3 4 6 8 9 10 11 9 7 6 6 7 10 13 15 17 18 19 18 17 15 12 11 14 17 16 12 8 8 11 15 18 19 16 15 18 24 28 30 33 36 37 37 38 38 39 40 39 38 35 24 16 30 36 35 36 36 29
36 36 34 31 30 30 29 26 24 20 18 17 13 8 6 6 4 1 5 7 7 5 3 1 1 1 0 2 4 3 3 5 6 6 6 5 4 5 9 12 13 13 14 16 17 16 15 14 13 13 15 15 13 9 7 8 13 16 17 16 13 14 17 22 27 30 32 34 35 35 35 37 37 37 39 38 37 32 16 20 34 36 35 37 33
25 24 23 20 19 19 19 17 16 15 14 13 9 7 6 3 0 3 7 8 7 5 3 2 2 1 2 3 4 2 2 4 5 6 6 5 4 6 10 11 10 11 11 12 13 12 11 12 13 14 13 12 9 7 8 11 14 15 14 13 13 13 17 21 25 28 30 31 32 33 35 37 36 37 39 38 35 33 21 6 26 33 32 34 33
14 12 9 7 9 13 14 14 12 12 11 10 9 8 5 2 3 4 6 6 3 1 1 0 1 1 2 4 4 3 3 4 6 6 6 4 3 7 9 9 8 9 9 8 9 9 8 10 11 10 8 8 7 8 10 12 13 13 14 17 18 17 19 22 25 27 27 28 30 33 35 38 38 38 38 37 36 38 32 12 11 25 30 30 31
8 8 8 7 8 11 12 11 10 9 9 9 8 5 4 5 4 3 2 3 4 4 3 1 1 2 3 4 5 4 5 6 7 7 5 2 4 6 7 7 6 5 6 6 6 7 8 7 6 5 5 5 7 9 10 12 14 14 16 19 21 22 23 24 24 25 25 26 29 33 36 39 39 38 39 39 40 42 39 29 12 7 21 26 28
6 6 7 7 8 9 11 12 12 11 10 9 7 4 4 6 6 6 6 7 7 6 4 3 2 3 5 7 6 6 7 7 9 8 5 4 6 6 6 6 5 5 5 5 5 7 7 4 4 5 4 6 8 9 9 12 14 15 17 19 21 23 23 22 21 22 24 26 29 32 35 38 39 39 40 40 40 40 40 37 30 17 2 15 21
5 5 5 5 7 11 13 14 14 13 12 10 9 8 8 8 7 7 7 6 5 4 3 3 2 2 5 8 8 8 8 8 8 8 5 5 5 4 4 5 5 5 6 7 7 7 6 5 4 6 6 7 10 11 11 13 14 16 18 19 20 22 23 23 24 25 26 28 29 31 34 36 37 38 39 38 38 39 39 37 33 29 20 8 4
4 2 2 5 9 12 13 13 12 12 11 11 10 10 9 7 7 8 7 5 3 2 2 3 3 3 5 8 9 9 10 9 7 6 5 3 2 0 2 5 5 5 7 9 7 6 6 5 6 8 7 7 11 13 14 16 16 17 20 20 20 23 25 26 27 28 28 28 28 29 32 34 35 36 37 37 37 38 39 36 32 31 29 23 17
4 1 3 9 11 10 11 9 8 9 11 12 12 11 11 9 7 6 5 3 2 1 2 3 4 4 6 8 8 8 9 7 5 4 3 2 3 3 3 4 5 5 7 8 5 4 5 5 7 8 7 8 10 12 14 16 17 18 20 20 20 23 25 26 27 27 27 26 27 29 30 30 32 34 34 35 36 36 37 36 32 29 28 24 19
7 6 7 9 10 11 11 9 9 10 11 10 10 11 13 12 9 6 5 4 2 1 0 1 3 4 6 7 6 5 4 3 2 2 3 5 6 5 6 6 6 7 7 7 6 7 7 7 7 8 7 7 10 11 13 15 16 17 19 20 20 22 24 25 26 26 26 26 28 30 30 28 30 31 31 32 34 34 35 36 32 28 26 23 20
11 9 6 7 9 12 12 10 10 10 8 8 12 14 15 14 12 9 7 5 4 4 4 4 4 5 5 5 4 2 2 2 3 3 4 5 7 6 5 7 8 8 6 6 7 8 7 7 8 8 8 8 9 10 12 13 14 15 17 18 20 21 23 23 24 24 24 25 26 29 30 29 29 30 29 30 31 32 33 34 32 29 27 25 23
11 9 7 8 10 11 11 8 6 6 8 13 17 17 16 16 15 12 10 8 7 7 7 6 5 6 5 4 4 4 5 6 5 4 3 3 4 6 5 5 7 8 6 6 7 8 8 8 9 9 9 9 9 9 11 12 13 14 16 17 18 20 21 22 22 23 23 25 26 27 28 29 30 30 30 30 30 30 30 31 31 30 28 25 24
11 8 8 9 10 9 9 8 8 8 11 15 18 18 17 17 17 16 14 12 10 9 8 6 6 8 8 7 7 7 8 7 6 4 3 1 1 4 5 4 6 6 6 8 9 9 8 9 9 9 9 10 10 10 11 13 14 15 17 17 18 20 21 22 23 24 24 25 26 27 28 29 29 29 29 29 29 29 29 30 30 28 26 25 23
10 9 8 8 8 8 9 10 10 11 12 13 15 17 18 17 17 16 14 13 13 13 11 8 8 8 8 7 7 6 6 6 5 5 4 4 3 3 5 8 9 9 9 10 10 9 9 9 8 8 8 10 10 11 11 13 15 16 17 18 18 19 20 22 23 24 23 24 26 27 27 28 29 28 27 27 28 28 28 28 28 27 26 26 24
10 9 8 8 8 9 8 9 10 10 11 11 11 12 14 15 16 15 14 14 15 14 12 11 9 8 8 7 5 5 5 5 6 6 6 7 7 8 12 13 12 10 9 9 8 7 7 7 7 8 8 9 9 11 12 12 13 15 16 17 17 18 19 20 22 23 23 23 25 27 28 28 29 29 28 27 28 28 27 27 28 27 27 27 26
8 8 9 9 10 10 9 10 10 10 10 10 10 11 12 13 14 15 15 15 15 15 14 14 13 11 10 7 4 2 1 1 2 5 7 7 6 8 11 12 11 9 9 7 6 5 5 5 6 7 8 8 9 10 11 12 12 13 14 15 15 16 16 18 19 21 21 22 24 27 28 27 28 29 28 27 27 28 28 28 28 27 28 28 27
6 8 9 10 10 10 10 10 10 10 10 11 13 13 13 13 13 14 15 15 15 16 17 16 15 14 12 8 5 3 5 6 7 6 2 5 7 8 9 10 9 8 8 6 5 5 5 6 6 6 7 8 9 10 10 11 12 12 13 14 15 15 15 16 18 19 20 22 23 25 26 26 27 28 27 26 25 26 26 28 28 27 27 27 26
5 6 7 8 9 10 9 9 10 12 13 14 13 13 12 12 11 12 14 14 14 16 17 15 14 13 10 6 4 4 4 5 8 9 5 5 7 9 9 9 8 7 6 6 5 5 6 6 7 7 7 7 9 10 10 10 11 12 12 14 15 15 15 16 18 19 20 21 23 24 25 25 26 26 26 25 25 24 24 25 26 26 25 25 24
5 6 6 7 8 9 10 11 13 15 15 15 14 13 12 11 10 11 13 13 12 13 14 14 13 11 6 2 2 2 2 2 2 4 7 8 9 9 9 8 7 7 6 5 5 5 6 5 5 6 6 7 8 10 10 10 11 11 11 13 15 15 14 15 16 18 19 20 22 23 23 24 25 26 26 25 25 24 23 23 24 24 24 24 25
7 8 7 7 7 9 11 13 13 14 14 14 12 10 9 8 8 8 9 10 11 11 12 12 11 9 6 4 4 4 4 4 3 6 8 8 8 7 5 4 4 5 5 4 4 5 6 5 4 5 6 6 7 9 9 10 10 10 10 12 14 15 15 14 16 18 19 20 21 22 21 22 24 25 25 24 24 24 24 23 24 24 24 24 25
7 7 7 7 7 8 11 13 13 13 12 10 9 9 8 8 8 7 5 5 7 9 11 12 11 9 6 5 4 5 3 2 3 5 6 7 7 6 3 2 2 4 4 5 5 5 6 5 4 5 7 7 6 7 8 10 12 12 11 12 14 16 15 15 16 18 19 20 21 21 20 20 23 24 24 24 24 25 24 24 24 24 24 24 24
4 5 5 5 5 6 9 12 12 11 9 8 9 10 10 8 8 7 5 3 2 4 11 14 11 8 7 6 5 7 6 3 2 2 3 4 5 5 4 3 2 4 6 5 5 5 5 5 5 5 6 7 6 7 8 10 12 13 12 13 15 16 16 15 16 18 20 20 20 21 19 19 22 24 24 24 25 25 25 25 24 24 24 24 24
2 4 4 4 3 5 9 11 10 8 8 9 10 10 8 7 7 7 6 5 3 3 11 14 11 8 7 6 6 8 7 4 3 3 1 2 4 4 5 7 6 6 8 6 5 5 5 6 6 5 5 6 6 6 7 9 12 13 13 14 15 16 16 16 17 18 20 20 20 21 20 19 21 23 24 24 24 25 26 26 25 24 25 25 24
3 4 4 3 4 5 7 8 7 7 8 8 8 8 7 7 8 8 7 6 6 7 12 14 11 10 9 7 8 9 7 4 5 4 3 4 6 6 6 7 8 10 9 6 5 6 5 5 5 5 5 5 5 5 7 9 12 12 12 13 14 15 15 15 16 17 19 19 19 20 21 20 20 21 23 23 24 24 26 27 26 24 25 25 25
3 4 4 3 4 5 6 6 7 8 8 7 7 8 9 9 10 10 9 9 8 9 13 14 11 11 11 9 9 9 7 7 8 8 7 6 5 4 4 9 12 10 8 6 6 6 5 4 4 5 5 3 2 4 6 9 12 12 11 12 13 12 12 13 14 16 18 18 18 20 21 21 20 20 20 22 24 24 25 26 26 25 25 26 26
1 2 4 6 7 7 7 7 8 9 9 9 10 10 11 12 12 12 11 10 8 8 12 13 11 12 13 11 8 7 8 9 11 13 12 9 6 4 7 10 9 7 6 7 7 6 6 4 3 4 4 2 1 3 6 10 12 11 10 11 11 10 10 11 12 14 16 17 17 18 20 21 21 20 20 22 24 25 25 26 25 25 25 26 26
4 5 6 8 9 10 10 10 10 11 12 13 13 12 12 13 13 13 13 12 10 10 11 11 9 11 13 11 8 9 11 11 12 14 14 12 10 9 9 9 7 6 6 6 5 5 6 5 4 3 3 2 0 3 6 11 13 11 10 11 10 9 9 10 11 13 15 15 16 17 19 20 19 19 20 22 23 23 24 25 24 24 25 25 26
8 7 6 6 9 12 12 13 14 14 14 15 15 14 14 15 15 16 15 14 13 13 12 10 10 11 12 10 8 9 11 11 10 10 11 13 13 11 8 7 7 7 6 5 5 5 5 5 5 4 5 4 1 2 5 11 13 11 9 10 10 7 7 8 10 12 14 14 15 17 18 19 17 16 19 22 22 21 23 24 24 24 25 25 26
10 11 11 9 10 12 13 15 16 16 16 16 16 16 16 17 17 17 17 18 18 17 14 13 14 13 11 8 8 8 9 9 8 7 9 13 13 10 6 6 7 7 7 7 6 5 5 6 6 7 7 5 2 1 4 11 13 10 8 10 10 7 5 6 8 11 12 14 15 17 17 17 16 15 18 22 21 20 21 23 23 23 24 25 25
11 13 14 13 12 13 12 14 16 17 17 18 18 17 17 19 19 18 18 19 20 19 17 16 15 13 10 8 9 9 9 9 9 8 10 12 11 8 6 6 8 8 8 7 6 6 7 7 7 9 9 6 3 1 4 12 14 10 7 8 8 6 5 5 6 9 11 12 14 15 16 17 16 16 18 21 21 19 20 21 21 21 23 24 24
Wind_Direction
186 186 185 184 183 185 188 191 194 196 199 206 210 215 220 221 224 233 238 241 244 248 254 261 267 271 275 280 286 293 295 296 298 298 298 299 300 300 297 292 286 277 279 283 273 269 267 256 261 272 275 283 304 331 337 340 339 337 336 329 321 317 309 301 296 299 309 313 311 309 310 307 301 296 291 286 281 276 272 270 268 266 263 260 257
185 184 183 186 186 184 186 191 193 195 199 205 210 215 220 223 228 235 239 242 245 247 254 262 265 264 268 274 280 288 292 294 295 295 294 294 295 298 294 287 284 281 282 282 275 267 255 247 257 266 268 273 282 305 322 329 332 332 335 329 316 314 310 300 297 298 305 313 315 312 312 310 303 298 295 289 284 279 274 270 267 264 262 260 256
183 183 184 187 185 183 188 194 195 198 201 206 211 215 219 226 233 237 241 247 247 248 255 261 260 261 266 271 273 280 290 293 291 290 291 292 295 298 293 286 283 279 278 279 276 268 253 246 257 263 259 263 271 283 301 313 320 323 328 327 314 314 316 307 300 300 302 309 313 312 312 310 305 300 297 292 286 280 274 270 266 263 262 259 255
181 182 186 189 186 184 192 197 198 200 202 205 212 216 223 232 237 237 239 246 246 246 253 258 260 265 269 271 273 279 287 289 287 288 290 290 294 301 299 292 286 281 280 281 279 275 264 253 257 262 258 257 262 269 282 297 307 311 314 317 313 313 316 312 306 302 300 304 308 309 309 308 304 303 300 295 289 281 273 269 264 261 261 259 255
180 183 188 189 186 186 192 197 198 200 203 208 213 216 223 230 230 230 234 238 236 239 251 260 262 266 271 275 280 284 287 289 291 295 295 290 296 305 301 288 279 281 285 286 286 282 273 266 266 264 256 253 257 263 273 285 294 300 304 306 305 307 309 309 308 306 301 300 304 307 308 307 304 303 303 298 293 286 276 268 262 259 260 258 255
180 185 189 188 186 188 194 199 201 202 206 211 215 218 221 225 230 242 245 239 237 246 260 266 266 271 276 279 283 289 291 293 297 301 299 296 301 306 299 283 277 283 288 292 292 287 282 280 276 268 259 257 258 259 264 276 286 292 299 301 300 300 302 304 308 308 304 302 303 304 306 307 305 303 304 301 295 288 280 271 264 259 256 254 252
181 187 189 186 187 192 197 202 203 205 207 211 213 215 221 230 240 247 241 242 257 267 266 265 269 275 277 278 288 298 298 293 293 297 296 295 298 297 293 289 287 291 297 299 297 293 290 286 281 277 271 266 264 263 262 274 285 290 296 298 296 294 295 301 307 308 305 304 304 302 301 303 303 300 303 304 298 289 280 271 264 259 253 248 247
181 188 188 185 189 196 200 203 203 205 208 211 212 215 224 234 239 238 241 254 269 273 268 267 275 278 276 281 294 296 290 285 286 292 292 287 286 290 293 293 293 298 302 304 304 301 299 295 294 291 280 270 273 275 271 277 284 289 295 296 292 290 291 297 305 306 305 303 301 300 299 300 300 299 301 303 300 292 284 272 262 259 255 249 247
181 186 185 186 193 199 201 201 201 202 205 208 212 218 225 231 233 239 248 258 264 265 265 267 274 277 277 285 293 290 282 279 280 286 286 276 269 279 287 287 290 296 301 307 310 307 304 307 307 300 286 281 287 282 271 268 271 279 290 293 290 289 291 297 303 304 303 301 300 300 298 297 298 298 299 298 294 292 291 283 268 261 259 255 252
180 184 184 188 196 200 201 200 200 200 201 205 212 219 226 230 234 242 249 252 255 256 257 260 263 268 273 279 285 287 283 279 280 285 286 281 272 269 274 277 282 288 292 300 306 305 305 308 310 307 301 299 297 290 279 273 271 276 286 290 290 290 290 293 300 302 300 299 298 299 298 295 295 294 291 291 290 289 289 285 275 265 262 259 256
179 183 186 190 197 200 200 199 201 202 202 206 214 221 227 230 234 241 243 245 250 252 251 252 255 261 265 266 270 281 282 280 283 288 286 284 280 275 276 279 281 284 288 295 301 303 304 306 308 311 312 310 305 300 293 285 279 282 286 286 287 290 289 291 297 299 298 296 296 297 295 291 293 292 289 288 288 285 283 281 276 265 256 252 253
179 184 187 191 198 200 198 197 200 200 201 209 217 221 225 227 232 238 239 243 250 252 249 249 255 261 258 253 258 269 274 273 276 281 282 281 281 281 284 285 284 285 288 291 296 299 302 305 307 309 314 317 313 305 300 295 291 290 289 286 289 296 298 296 296 296 295 294 294 295 294 291 292 292 288 285 284 282 279 277 273 264 254 250 249
181 185 188 191 196 197 195 195 196 198 204 215 221 222 222 226 232 237 241 247 252 253 250 250 257 258 249 247 255 261 262 265 271 278 281 281 284 293 300 300 296 293 292 293 293 297 304 309 308 308 316 321 318 310 305 302 300 296 291 290 294 301 305 304 302 301 297 293 291 292 293 293 291 289 287 283 280 277 274 272 271 267 258 251 248
178 181 185 189 192 193 193 195 199 204 211 218 222 223 223 225 231 238 243 248 251 252 251 251 257 258 251 248 252 255 255 260 268 277 280 279 285 300 310 312 307 301 300 299 295 297 307 312 307 309 318 322 316 310 307 301 296 292 291 296 302 307 310 309 309 310 306 302 297 294 296 296 292 289 286 281 273 268 266 264 264 266 262 255 251
179 182 185 190 194 196 197 200 204 208 213 218 221 223 223 225 230 238 243 246 249 251 252 253 260 262 253 247 250 255 254 255 262 274 280 277 280 296 312 318 316 311 310 308 300 298 305 307 304 310 318 318 312 311 306 294 286 290 297 304 310 315 316 314 315 316 313 311 306 302 302 301 296 292 288 281 270 263 259 258 258 262 266 265 259
182 185 187 191 197 200 200 202 206 210 214 217 219 221 222 223 229 237 239 241 246 251 253 256 262 264 254 250 258 260 254 257 276 281 280 276 279 299 317 322 321 318 317 313 305 302 303 301 301 309 315 313 309 310 300 285 289 301 305 308 315 320 320 321 323 321 317 317 315 313 312 309 305 301 294 285 273 262 254 252 252 252 257 259 255
184 188 190 194 198 200 201 203 206 211 214 215 218 222 222 223 230 236 236 237 243 249 253 256 263 267 260 258 278 276 261 277 296 287 280 286 300 309 317 320 321 321 320 317 310 305 304 303 303 308 312 309 305 302 289 284 296 305 305 309 317 321 322 326 329 326 325 325 323 322 320 315 313 310 303 293 278 261 247 240 238 237 241 248 246
184 187 192 198 201 201 202 205 209 212 214 215 218 222 222 224 229 233 234 238 244 248 252 258 264 261 247 231 304 286 258 268 279 270 272 300 314 315 314 315 319 321 321 319 313 309 309 309 308 309 311 309 306 298 289 292 299 302 307 316 318 317 322 329 330 330 332 332 329 328 325 322 323 320 314 308 288 253 234 227 226 226 231 238 241
186 189 196 202 204 203 205 208 211 213 215 216 219 223 224 226 232 236 238 242 245 246 248 254 258 250 243 251 251 232 203 201 217 227 271 301 311 321 321 316 318 322 321 318 313 311 313 315 314 312 313 314 311 305 300 300 298 297 309 319 317 316 325 331 331 332 334 332 331 331 329 328 331 328 325 326 312 253 227 222 220 219 224 233 237
189 194 200 202 203 205 207 210 213 215 217 219 221 223 224 228 236 241 242 245 248 248 248 256 267 267 272 269 249 234 248 249 238 250 281 294 305 323 327 321 321 321 319 316 314 312 313 314 310 306 315 318 314 311 310 307 298 297 308 316 314 316 326 331 332 334 335 332 331 331 330 332 334 332 332 339 335 275 230 220 217 216 219 227 234
194 196 198 200 202 207 211 214 215 217 220 222 221 220 220 223 223 222 231 254 257 249 246 259 264 237 237 245 248 258 264 261 257 264 274 284 300 317 319 317 319 317 313 313 316 316 316 316 312 310 315 316 313 313 314 308 295 298 309 316 314 315 323 328 331 336 337 334 332 331 331 333 336 336 338 344 346 310 238 221 216 215 217 221 228
196 195 197 201 205 209 213 217 219 219 219 215 206 194 188 180 157 122 50 313 276 258 245 222 183 182 201 243 269 271 263 258 260 261 261 271 290 301 305 310 313 312 311 314 317 317 317 320 321 319 317 316 315 314 310 299 296 304 315 320 317 313 320 328 334 338 338 336 333 331 333 335 336 337 341 345 349 341 270 229 219 215 216 220 224
191 193 198 202 207 212 215 216 215 210 202 195 185 167 158 156 138 28 318 300 299 310 318 292 207 165 268 291 288 289 268 244 240 239 243 257 274 294 310 314 313 310 312 316 317 317 317 319 321 322 322 320 318 311 303 307 312 317 323 326 319 314 323 335 341 342 340 337 334 331 333 336 335 337 343 346 347 349 329 241 224 218 216 219 224
181 187 194 200 207 212 211 206 198 188 184 188 191 185 180 173 111 308 291 291 301 303 284 283 316 348 329 290 276 271 224 201 203 215 228 239 266 303 312 311 304 301 307 317 324 327 323 314 314 321 327 328 324 315 315 326 331 332 340 347 344 337 339 345 347 346 342 338 335 331 332 336 336 338 344 347 349 357 4 260 223 220 216 215 219
150 157 163 177 192 193 189 188 187 184 186 189 183 171 173 243 285 273 271 272 267 218 201 354 355 310 272 268 259 233 187 180 187 196 201 214 280 306 308 305 301 300 305 315 328 332 318 305 310 324 335 342 343 333 327 335 344 351 1 6 5 1 358 355 353 350 344 338 337 335 334 336 339 342 347 353 2 10 17 17 220 214 212 213 219
117 103 99 117 150 164 169 174 178 181 183 185 188 198 237 253 236 200 174 148 126 115 108 103 152 203 209 230 236 208 177 177 187 193 196 236 304 310 307 309 314 314 314 318 320 318 314 318 336 355 355 353 354 342 333 339 349 358 6 9 8 6 3 0 356 350 343 340 340 339 337 338 342 347 354 2 10 14 16 16 11 218 206 208 215
102 96 96 112 141 160 169 170 166 162 162 164 165 167 183 187 170 141 133 134 127 116 107 111 144 188 203 218 215 185 174 187 198 202 217 271 305 310 308 317 330 332 334 340 333 329 338 5 39 32 13 358 355 348 341 343 347 354 3 7 6 4 3 2 357 350 345 346 345 342 341 343 347 353 359 4 8 12 16 18 16 11 284 203 207
109 101 91 111 138 147 151 152 151 151 151 148 139 130 136 148 148 142 146 147 143 139 132 136 152 192 216 221 213 193 188 199 205 215 242 277 294 302 317 336 348 353 355 356 351 357 24 67 56 22 14 2 357 356 355 354 353 357 4 6 5 4 5 6 2 359 358 355 350 348 348 348 350 356 1 4 5 8 15 19 18 17 28 65 137
133 83 83 137 143 143 146 147 149 152 147 134 121 115 122 139 148 146 145 145 154 185 231 232 234 240 220 209 203 201 205 209 219 240 262 270 252 305 3 359 1 4 358 352 353 20 51 61 33 21 22 9 2 1 359 357 356 358 3 6 6 5 8 8 4 2 2 357 352 353 354 352 352 356 0 3 3 5 12 17 18 20 29 40 42
163 199 183 163 157 158 163 160 156 156 147 130 117 111 115 126 137 139 137 138 163 243 282 260 244 235 214 199 190 194 202 210 232 255 256 202 161 118 67 38 25 12 359 355 8 40 50 50 37 29 25 15 11 7 360 355 354 353 357 3 6 5 7 8 4 2 1 357 354 357 358 356 356 357 359 2 1 1 8 14 16 19 25 29 30
182 186 184 173 173 179 178 162 144 147 149 142 138 136 132 129 129 132 135 125 110 97 105 199 194 202 208 203 191 189 200 212 232 232 188 160 151 125 90 70 54 36 25 33 55 60 57 58 51 36 27 22 17 11 2 356 354 353 355 1 5 5 5 5 4 2 1 359 358 359 360 0 1 359 360 2 0 359 5 9 10 15 22 26 26
183 178 170 167 172 174 169 150 130 135 154 169 169 163 153 142 132 127 129 129 120 122 130 141 155 176 202 213 207 195 180 155 142 144 150 160 164 150 112 81 65 56 57 70 72 62 56 55 47 35 30 27 21 15 10 3 358 357 359 1 3 4 4 3 2 2 2 1 0 0 0 1 3 2 3 5 2 360 3 6 6 8 13 19 23
185 172 155 158 163 160 158 151 141 151 175 182 179 173 167 162 154 143 136 135 134 136 138 135 131 133 145 157 145 125 117 109 102 108 126 159 174 169 147 103 73 63 71 89 81 65 57 55 50 44 40 36 29 22 17 11 4 2 2 2 2 2 2 2 4 5 6 5 4 3 2 3 4 4 5 6 5 3 4 4 5 7 9 12 16
182 168 154 158 165 171 181 190 192 186 180 178 180 182 182 180 172 159 148 145 147 148 144 133 118 114 119 127 125 116 108 99 91 91 83 57 219 215 202 151 107 86 82 89 87 76 66 58 50 45 41 38 34 28 21 16 11 7 4 3 3 4 5 5 7 9 9 7 6 6 6 6 7 6 5 6 7 7 6 4 4 6 9 9 8
189 189 179 166 165 176 190 197 200 199 190 179 175 180 184 182 175 169 164 160 160 159 157 151 139 127 124 126 127 126 119 106 97 94 77 65 87 166 162 139 124 106 90 85 80 71 63 55 45 37 33 30 29 27 20 14 11 10 7 4 4 7 9 9 10 11 11 8 7 7 7 8 8 7 6 8 10 8 5 3 3 5 9 10 5
196 206 209 198 182 174 177 183 187 188 184 175 166 168 174 174 171 171 171 169 167 167 169 171 162 148 143 141 137 141 140 117 103 99 86 76 90 116 123 122 117 106 93 83 72 60 49 36 28 28 25 21 23 24 18 10 9 11 9 6 7 11 13 11 11 13 13 11 10 10 10 10 9 8 8 10 11 10 7 4 5 7 10 11 9
201 201 197 189 177 167 167 172 174 174 178 180 179 176 172 167 166 168 170 173 173 172 176 180 177 172 168 156 133 138 209 185 125 107 91 84 94 112 116 115 113 105 94 81 68 57 37 17 16 27 27 23 21 20 16 14 13 13 10 8 11 16 18 15 14 15 14 12 13 13 12 11 9 9 10 9 9 10 9 7 7 8 10 13 13
201 190 183 180 175 170 168 166 164 170 180 182 180 177 170 164 166 170 171 171 172 175 183 188 185 180 176 164 156 198 251 257 250 243 189 104 109 115 114 110 106 101 93 80 69 58 44 36 36 37 32 27 23 18 17 18 19 17 13 11 13 19 21 19 19 19 16 13 13 12 12 12 10 10 11 10 8 8 10 9 9 8 8 11 12
188 179 182 188 183 176 176 171 162 166 173 175 175 175 172 171 175 175 171 171 176 182 184 177 164 159 159 161 182 215 246 256 248 243 220 153 128 118 114 109 101 96 93 83 70 57 47 44 44 38 30 25 22 20 19 18 17 18 19 16 16 20 23 22 22 22 19 15 13 11 11 12 12 11 13 13 10 8 8 9 11 10 8 7 7
172 163 172 187 185 180 181 176 167 168 173 175 176 175 175 178 180 174 171 177 184 179 167 155 148 147 144 138 164 149 80 54 175 168 151 142 132 121 117 114 105 100 97 90 77 59 46 42 43 37 29 23 22 21 17 14 14 19 23 22 21 23 27 27 26 26 23 17 14 12 12 13 14 13 13 14 13 12 11 10 10 11 9 7 7
177 166 161 172 181 183 181 175 172 175 178 178 178 180 180 183 186 183 184 192 194 182 164 155 153 150 134 123 149 141 83 59 105 129 127 127 127 124 125 128 122 115 111 111 99 68 50 52 60 43 30 26 25 22 16 11 11 17 26 27 26 29 36 37 33 30 28 23 17 13 13 15 15 14 14 14 15 15 15 15 13 12 12 10 9
192 183 168 162 167 177 184 185 183 180 177 174 177 178 177 182 191 198 199 193 189 180 165 154 152 154 145 135 161 178 157 90 105 121 118 122 131 131 128 132 140 132 122 115 107 82 60 60 69 51 38 34 28 21 16 10 10 18 30 33 31 34 39 41 38 34 31 27 21 17 17 18 18 16 15 16 16 15 15 15 15 16 16 14 12
189 196 184 171 165 174 187 188 183 179 179 182 181 177 174 177 189 200 207 204 191 165 158 154 153 155 147 136 161 185 179 148 131 138 127 139 156 159 170 197 183 141 127 117 106 94 76 70 74 65 53 49 37 21 14 10 12 21 31 33 34 38 41 41 40 37 32 27 23 21 22 23 21 18 18 18 17 16 15 14 15 16 17 16 15
163 187 190 186 174 166 170 170 169 176 186 185 181 181 182 183 187 190 197 215 238 177 163 162 159 152 141 136 158 177 174 160 171 191 216 214 203 204 220 229 211 165 148 137 115 106 98 84 82 78 67 59 46 26 13 8 12 21 29 29 32 40 41 40 40 36 29 26 25 24 25 26 24 21 20 19 17 15 14 14 14 15 15 15 16
104 139 152 164 166 165 166 167 173 186 186 176 173 179 184 191 197 196 195 210 223 193 172 169 167 162 157 152 156 166 173 181 191 203 223 226 235 255 252 217 182 156 144 129 103 106 114 103 88 82 76 69 54 30 13 7 11 21 27 28 31 38 40 39 40 37 31 29 28 27 26 27 26 24 23 22 20 17 14 14 15 15 14 14 14
92 108 118 152 174 178 184 191 194 191 185 185 196 202 200 202 210 212 210 214 214 186 170 169 170 169 168 166 166 175 189 198 202 205 201 196 220 250 202 162 152 143 129 108 91 95 107 108 97 93 95 94 64 21 9 8 14 22 27 27 31 38 41 40 40 38 35 33 33 30 28 29 29 28 27 26 25 20 16 16 18 17 16 15 14
183 174 178 191 197 196 199 207 207 204 205 214 223 222 213 207 211 216 216 217 211 182 168 170 176 178 177 176 180 193 202 205 211 216 213 205 203 189 152 144 146 144 131 118 110 108 109 109 103 100 109 117 62 9 14 16 18 23 27 26 28 35 41 44 43 40 37 37 37 35 33 31 31 31 30 30 28 23 19 19 20 19 19 18 17
287 254 216 205 204 205 207 211 214 213 215 222 227 228 223 215 210 208 208 209 210 205 197 194 193 190 185 184 199 219 221 219 222 224 220 209 193 171 152 144 144 147 143 138 137 137 135 126 111 117 151 173 312 3 13 15 15 19 26 27 25 28 36 43 45 43 41 41 42 40 37 35 34 33 33 32 28 24 23 23 22 21 21 20 20
313 294 262 229 214 210 209 214 218 219 221 226 229 229 227 220 211 206 207 206 204 206 209 209 200 190 186 193 212 223 220 219 224 224 210 193 178 168 162 157 154 154 154 149 145 152 161 150 132 144 174 188 217 342 3 9 10 14 23 24 22 26 37 43 44 44 43 44 45 43 40 37 34 34 37 36 31 27 28 28 26 25 25 23 22
310 312 306 287 260 243 229 219 217 219 223 228 232 233 228 219 210 207 210 209 206 208 212 207 194 186 187 202 217 215 208 211 218 208 183 171 169 172 174 166 159 160 158 150 145 156 168 158 153 169 184 186 194 263 3 11 12 15 21 19 17 24 44 52 50 47 45 45 45 44 40 36 35 38 41 39 33 29 31 32 30 29 29 26 25
295 307 311 307 295 280 256 232 223 223 224 226 232 235 230 221 215 213 213 211 208 208 208 204 197 194 197 203 207 208 210 213 214 201 180 171 170 175 175 168 167 171 168 163 169 180 171 155 159 181 187 180 173 182 18 19 20 22 19 10 9 19 40 54 57 53 49 47 47 44 37 33 35 42 45 42 36 32 34 35 33 31 31 30 29
Height
801 803 805 806 806 807 809 811 813 814 815 816 816 817 817 817 817 818 818 819 820 819 819 819 819 818 818 818 819 819 819 820 820 820 820 819 819 818 818 818 817 817 816 816 816 815 814 814 814 813 813 813 812 811 811 810 808 807 807 805 805 804 802 801 796 789 785 783 779 774 773 770 767 764 762 759 757 756 755 754 753 752 751 751 751
798 801 804 805 804 805 808 810 811 812 813 814 815 816 816 816 816 816 816 817 818 818 818 817 817 816 816 816 816 817 817 817 818 817 817 817 816 816 816 816 816 815 814 814 813 813 813 812 811 811 811 810 810 809 809 808 807 805 804 803 802 801 800 798 795 789 783 779 776 771 769 767 763 760 759 756 753 753 752 750 749 748 747 746 746
796 799 801 803 803 804 806 809 810 811 812 812 813 814 814 814 814 814 814 815 815 816 816 816 815 815 814 814 814 814 815 815 815 815 814 814 814 814 815 814 814 813 812 811 811 811 810 810 809 809 808 808 807 808 807 806 805 803 801 801 799 798 797 795 793 788 782 778 775 770 766 765 760 756 755 753 750 749 748 746 745 744 743 742 741
793 796 799 800 800 802 805 807 809 809 810 810 811 811 812 812 812 812 812 812 813 814 814 814 814 813 813 812 812 812 812 812 812 812 812 812 812 812 812 812 811 810 809 809 809 808 808 807 806 806 805 805 805 806 805 804 803 801 799 798 797 795 794 793 790 787 782 777 773 769 765 763 758 754 752 750 747 746 745 743 742 740 739 738 737
791 794 797 798 798 801 804 806 807 807 807 808 808 809 809 809 810 810 809 809 810 812 813 813 812 812 811 810 810 810 810 810 810 810 809 809 809 809 808 807 808 807 807 807 806 806 805 804 804 803 803 803 803 803 802 801 800 798 796 794 794 793 791 790 788 785 782 777 772 767 763 761 757 752 750 748 744 741 740 739 738 737 735 734 733
788 791 794 795 796 799 802 804 805 805 805 806 806 806 807 808 808 807 807 807 809 810 811 811 810 809 809 808 808 808 808 808 808 807 807 807 807 806 805 804 804 804 804 804 803 803 803 802 802 801 801 800 799 798 797 797 796 795 793 791 791 790 788 787 785 783 780 776 771 765 761 758 755 750 747 746 743 739 737 735 734 733 732 731 729
784 788 790 792 794 797 799 801 802 803 803 804 805 805 805 806 806 805 805 806 808 809 809 809 808 807 807 806 806 807 807 806 806 805 805 805 804 804 803 803 802 802 801 801 800 800 800 800 799 798 797 796 795 794 794 794 793 792 790 788 787 786 785 783 782 779 777 773 769 764 759 755 752 748 744 743 741 737 735 732 730 728 728 726 725
781 784 787 789 791 794 796 799 799 800 801 802 803 803 804 804 804 804 804 805 806 807 807 807 807 806 805 805 805 805 805 804 804 804 803 803 803 802 801 801 800 799 799 798 798 798 797 797 796 795 794 793 793 793 793 792 791 789 788 786 785 783 782 780 778 776 774 771 767 762 757 753 749 745 742 740 737 734 732 730 727 725 724 722 721
778 781 783 786 789 791 794 796 797 798 799 800 801 801 802 802 802 802 803 803 804 804 804 805 805 804 804 804 804 803 803 803 802 802 802 801 801 800 799 799 798 797 797 796 796 795 795 794 794 793 792 790 789 788 788 787 786 786 785 784 783 781 779 778 776 773 771 768 764 760 756 751 747 743 740 738 735 732 730 728 725 722 721 719 717
774 777 780 783 786 789 791 794 795 796 797 797 798 799 800 800 800 800 800 801 801 801 802 802 802 802 802 802 803 802 801 801 801 801 800 799 799 798 797 797 796 795 794 794 794 793 793 793 792 791 790 787 786 784 784 784 783 783 783 781 780 779 777 775 773 771 768 764 761 758 753 748 744 741 737 735 733 730 728 725 722 720 719 717 714
770 774 777 781 784 787 789 791 793 794 794 794 795 796 797 797 797 798 798 798 799 798 799 799 798 799 799 800 801 801 800 800 800 799 798 798 797 796 796 795 794 793 792 792 792 791 791 791 790 789 787 785 783 782 781 781 781 781 780 778 778 777 775 773 771 768 765 761 758 755 750 745 741 737 734 731 729 727 725 722 719 716 715 714 711
767 771 774 778 782 785 787 789 790 791 791 791 792 793 794 795 795 796 796 796 796 796 796 796 795 796 796 797 798 798 798 798 798 797 797 796 796 795 794 793 792 791 790 790 790 789 789 789 788 786 785 782 781 780 779 779 778 778 777 776 775 775 773 771 769 766 763 758 754 751 747 741 737 734 730 728 725 723 721 719 715 712 710 709 707
764 768 772 776 779 782 785 786 787 787 787 788 789 791 792 793 793 794 794 794 794 794 794 793 793 793 794 795 795 795 796 796 796 796 795 795 795 794 793 792 790 788 788 787 787 787 787 787 786 784 783 781 779 778 777 777 776 775 775 774 773 772 770 769 766 763 760 756 751 747 743 738 733 728 726 724 721 718 716 715 712 709 707 705 702
761 765 769 773 776 779 782 783 783 784 784 786 787 789 790 790 791 791 791 792 792 792 792 791 791 791 791 792 793 793 793 794 793 793 793 793 793 793 792 790 788 786 786 785 785 785 784 784 784 782 781 780 778 777 776 776 775 774 773 772 770 769 767 765 762 759 756 752 748 742 737 733 728 722 720 718 716 713 711 710 708 705 703 701 698
758 762 766 770 773 776 778 779 780 780 781 783 785 786 787 787 788 789 789 789 789 789 789 789 789 789 789 790 790 791 791 791 792 792 792 791 791 791 790 789 787 785 784 784 783 783 783 782 782 781 780 778 777 776 775 775 774 773 772 770 768 766 764 761 758 754 751 748 743 737 731 726 721 716 712 710 708 706 705 705 704 702 701 698 695
755 759 763 767 770 772 773 775 776 777 778 780 781 783 784 784 785 786 786 787 787 786 786 787 787 787 788 788 788 789 790 790 790 791 790 790 790 789 789 787 785 784 783 783 782 782 781 781 780 779 778 777 776 775 774 773 772 771 769 767 765 763 760 758 754 751 747 742 737 731 725 719 713 708 703 700 697 696 698 699 698 698 697 694 691
752 756 760 763 766 767 769 771 772 773 775 776 778 779 780 781 782 783 783 784 784 784 784 784 785 786 786 787 787 788 789 789 789 789 789 789 788 787 786 785 783 782 782 782 781 780 780 779 778 777 776 775 774 773 772 771 770 768 766 764 762 760 756 753 749 746 742 736 730 725 718 712 706 699 693 688 684 686 690 690 689 691 691 688 685
750 753 757 760 762 763 765 767 769 770 771 772 774 775 776 777 779 779 780 781 781 781 781 782 784 784 785 785 785 786 787 787 786 787 787 786 785 785 784 782 780 780 780 780 779 778 778 777 776 775 773 772 772 770 770 769 767 766 764 761 759 757 753 750 745 741 736 730 724 719 713 706 699 691 683 676 671 672 676 677 679 683 684 683 681
747 751 754 756 758 760 762 764 765 766 767 768 770 771 772 774 775 776 777 778 778 779 780 781 782 783 783 782 782 782 783 784 784 784 784 783 782 781 780 779 778 779 778 777 777 776 776 776 775 774 772 771 770 769 768 767 765 764 762 760 758 755 751 748 743 737 731 725 719 713 707 701 693 685 677 668 662 662 663 666 671 676 678 678 677
744 748 751 753 755 757 758 760 762 763 764 765 767 769 770 772 774 774 775 776 777 778 780 780 781 781 780 780 780 780 781 781 782 782 780 780 779 778 778 777 777 777 776 775 775 774 774 774 774 773 771 770 769 768 766 765 763 762 760 758 756 753 750 746 742 736 730 724 717 711 704 697 690 682 674 665 659 657 658 660 665 669 672 673 673
743 746 749 750 753 755 756 757 759 760 762 763 765 768 769 770 772 773 775 777 779 779 779 778 778 778 778 778 778 778 779 779 780 779 778 778 777 776 776 777 776 775 774 773 773 772 772 772 772 771 769 768 767 766 765 763 762 760 759 757 755 752 748 744 740 735 730 724 717 710 703 696 689 681 672 665 658 656 655 656 660 664 666 668 669
741 744 747 749 751 752 753 755 756 758 761 763 765 767 768 769 770 771 775 778 778 777 776 776 776 776 776 777 777 777 777 778 777 777 776 776 776 775 775 776 775 774 773 772 771 771 771 771 770 769 768 767 765 764 763 762 760 759 757 755 753 750 747 743 739 734 729 723 717 711 703 696 688 680 672 664 657 654 653 653 656 659 661 663 665
740 743 746 748 749 750 752 754 756 758 760 762 764 765 766 768 769 770 774 776 775 774 773 774 775 775 775 775 775 776 776 776 776 775 775 774 774 774 775 774 774 773 772 771 770 769 769 769 768 768 766 765 764 763 761 760 759 758 756 753 750 747 744 741 737 733 728 724 718 712 705 698 690 682 673 665 658 653 650 650 652 654 657 660 663
741 744 746 748 749 751 752 754 756 758 759 761 762 763 765 767 767 769 772 773 772 771 772 773 774 774 774 774 774 774 775 775 775 774 773 773 773 773 774 773 772 771 771 770 769 768 767 767 767 766 765 763 762 761 760 759 758 756 754 751 748 745 742 739 736 733 729 725 720 713 706 699 693 684 675 668 661 653 648 647 649 651 654 657 661
742 744 747 748 749 750 751 753 755 756 758 759 760 762 764 765 766 768 770 770 769 770 770 771 772 772 772 772 772 773 774 774 773 772 772 772 772 772 773 772 771 770 769 769 768 767 766 766 765 764 764 762 761 760 759 758 757 755 752 749 746 744 741 739 736 734 730 726 721 715 707 701 694 687 679 672 663 655 649 647 649 651 653 656 659
741 743 745 746 748 749 750 752 754 755 756 758 759 760 762 763 765 767 767 767 768 768 769 770 770 771 771 771 771 772 772 773 772 772 772 772 771 771 771 771 770 769 768 767 766 765 765 765 764 763 763 762 761 760 759 758 756 754 751 749 746 744 742 739 737 735 732 728 722 716 710 702 696 689 681 673 665 659 654 651 650 651 653 655 657
739 741 744 746 747 749 750 751 753 754 756 757 758 759 760 762 763 764 765 766 767 768 769 769 770 770 770 770 770 771 771 771 771 771 771 771 770 770 769 769 768 767 767 766 765 764 764 763 763 763 762 761 761 760 758 757 755 753 751 748 746 744 742 741 739 737 733 729 724 719 712 705 697 690 682 675 670 666 662 658 655 653 652 653 655
738 740 743 745 746 747 749 751 752 754 755 756 757 758 759 760 762 763 764 765 766 767 768 768 769 769 769 769 769 769 769 770 770 770 769 769 768 768 768 767 767 766 766 765 764 764 763 762 762 762 761 761 760 759 758 756 754 752 750 748 746 744 742 739 738 735 732 728 724 720 714 707 700 693 687 681 676 672 668 665 662 659 655 653 655
738 740 742 743 745 746 748 750 751 752 754 754 756 758 759 760 762 763 764 765 765 766 767 767 768 768 767 768 768 768 768 768 768 768 767 767 767 767 767 766 766 765 765 765 764 763 763 762 761 761 761 761 760 758 756 755 753 752 750 748 746 744 741 738 736 735 732 729 725 720 716 710 704 697 691 686 682 678 674 670 668 665 660 659 660
738 740 741 742 744 745 747 749 750 751 752 753 755 757 759 761 762 763 764 764 765 765 765 766 766 767 767 767 767 767 767 767 766 766 766 766 766 766 766 765 765 765 765 764 763 763 763 761 761 761 761 760 759 757 756 755 753 752 750 748 747 745 742 740 738 736 733 730 726 722 718 713 708 702 697 692 688 684 679 675 673 671 668 666 666
738 739 740 742 743 744 746 747 749 750 752 753 754 756 759 761 762 763 763 764 765 765 765 766 766 767 767 767 767 766 766 766 766 766 765 765 765 765 765 765 764 764 764 763 763 764 763 762 761 761 761 760 759 757 756 755 753 752 750 748 747 745 743 741 739 736 734 730 727 723 719 715 712 708 703 698 693 688 684 680 677 675 673 672 670
737 738 740 741 742 743 745 746 748 750 751 752 754 755 757 759 761 763 764 764 765 765 766 766 767 767 767 767 767 766 766 766 765 765 764 764 764 764 764 764 764 764 764 763 763 764 763 762 762 761 761 760 759 758 757 755 754 753 750 748 747 745 744 742 740 738 735 732 729 725 721 717 714 711 707 704 699 694 689 685 681 678 676 674 671
737 738 739 740 741 743 744 745 747 748 750 751 752 754 755 757 759 761 763 764 765 765 766 767 767 767 767 767 766 766 766 765 765 764 764 764 764 764 764 765 764 764 763 763 763 764 764 763 762 762 761 760 759 758 757 756 755 754 752 750 748 746 745 743 741 739 736 734 731 728 723 720 716 713 710 707 703 699 694 690 687 684 680 677 675
736 737 738 739 741 742 743 744 745 747 748 749 751 752 753 755 757 759 761 763 764 765 766 767 767 767 767 767 766 766 766 765 765 764 764 763 763 763 763 764 764 764 763 763 763 764 764 763 763 763 762 761 760 759 758 757 756 754 752 751 749 747 745 743 741 739 737 735 733 730 726 723 719 715 713 709 706 702 699 695 693 690 686 683 680
735 736 738 739 740 741 742 743 744 745 747 748 749 750 752 754 755 757 759 760 762 763 765 766 767 767 767 767 766 766 766 765 765 764 764 763 762 762 761 762 763 763 763 763 763 763 764 764 764 763 762 762 760 759 758 757 756 755 753 752 750 748 746 744 742 740 738 736 734 731 728 725 722 719 716 713 709 706 704 701 698 695 691 688 685
735 736 737 738 738 739 740 741 743 744 746 747 749 750 751 752 754 755 757 758 760 761 763 764 765 766 766 766 766 766 766 765 765 764 763 763 762 761 760 761 762 762 762 763 763 763 764 764 764 763 762 762 761 760 759 758 757 756 755 753 751 749 747 745 743 741 740 738 735 733 730 727 725 722 719 715 713 711 708 706 703 699 696 693 690
736 737 737 738 738 738 739 741 742 744 745 746 748 750 751 751 752 754 756 757 758 760 761 763 763 764 765 765 765 766 766 765 765 764 764 763 762 762 761 761 762 762 762 762 763 763 764 763 763 763 762 762 761 760 759 758 758 757 756 754 752 750 748 747 745 743 741 739 737 735 732 730 728 725 721 719 716 714 712 710 707 704 701 698 695
737 737 737 738 738 739 740 741 742 744 745 745 747 748 750 751 752 753 754 756 757 758 760 761 762 763 763 764 764 764 764 764 764 764 763 763 763 762 762 762 762 762 762 762 763 763 763 763 763 763 762 762 762 761 760 759 758 757 756 755 753 751 749 748 746 744 742 740 738 737 735 733 730 728 725 723 721 718 716 714 711 708 705 703 701
737 737 738 738 739 740 741 741 742 743 744 745 746 748 749 750 751 752 753 755 756 757 758 759 761 762 762 763 763 763 763 763 762 762 763 763 763 762 762 762 762 762 762 763 763 763 763 763 763 762 762 762 762 761 760 759 758 757 756 755 753 752 750 748 747 745 743 741 740 738 737 735 733 731 729 727 725 723 720 718 716 713 710 708 706
737 738 738 738 739 740 741 741 742 743 743 744 746 747 748 749 750 751 752 754 755 756 757 758 759 760 761 761 761 761 762 762 762 762 762 762 762 762 762 762 763 762 762 762 762 763 763 763 762 762 762 762 762 761 760 759 758 757 756 755 754 752 751 749 748 746 744 743 741 740 738 737 736 734 731 730 728 726 724 722 720 717 715 712 710
736 738 738 738 739 740 740 741 742 743 743 745 745 746 747 748 749 750 752 752 753 755 755 755 757 758 758 759 760 761 762 762 762 762 762 762 762 762 762 762 763 762 762 762 762 763 763 762 762 762 762 762 762 761 760 759 758 757 756 755 754 753 751 750 749 748 746 744 743 741 740 739 738 736 734 732 730 728 726 724 722 720 718 715 713
736 737 738 738 739 740 740 741 741 742 743 744 745 746 747 748 748 750 751 751 752 753 753 754 755 756 757 758 759 760 761 762 762 762 762 762 762 762 762 762 762 762 762 762 762 763 763 762 762 762 762 762 761 761 760 760 759 757 756 755 754 753 752 751 750 749 747 746 745 743 741 740 739 738 736 734 732 730 728 726 725 723 721 718 716
735 736 737 738 739 739 740 740 741 742 743 744 745 746 746 747 748 749 750 751 752 752 752 753 755 755 756 757 758 759 760 760 761 761 761 761 762 762 762 762 762 762 762 762 762 763 763 762 762 762 762 762 761 760 760 760 759 758 756 755 754 753 752 751 751 750 748 747 746 745 743 742 741 739 737 735 733 732 730 728 727 725 723 721 719
736 736 737 738 738 739 740 740 741 743 744 744 745 746 746 747 748 749 749 750 751 751 752 753 754 755 756 756 757 758 759 759 760 760 761 761 761 761 761 761 761 762 762 762 762 762 762 762 762 762 762 762 761 760 760 760 759 758 757 755 754 753 753 752 751 750 749 748 747 746 744 743 742 741 738 736 735 733 731 729 728 727 725 724 721
737 737 737 738 739 740 740 741 742 743 744 744 745 745 746 747 748 748 749 750 750 751 751 752 753 753 754 755 756 757 758 758 759 759 759 759 760 760 760 760 760 761 762 762 762 762 762 762 762 762 762 762 761 760 760 760 759 758 757 756 755 754 753 753 752 751 750 749 748 747 745 744 743 742 740 738 736 735 733 732 730 728 727 725 724
738 738 738 739 740 740 741 742 743 744 744 744 744 745 746 746 747 748 748 749 749 750 750 751 752 752 753 754 755 756 756 757 758 758 758 758 758 759 759 759 760 760 761 761 761 761 761 762 762 762 762 762 761 761 761 760 759 758 757 756 756 755 754 754 753 752 751 750 749 748 747 745 744 744 742 740 738 737 735 734 732 731 729 727 726
739 739 739 739 740 740 741 742 743 743 743 744 744 744 744 745 745 746 747 748 748 749 749 750 751 751 752 753 754 754 755 756 756 756 757 757 757 758 759 759 759 760 760 760 760 760 761 762 762 762 761 761 761 761 761 760 759 759 758 757 756 755 755 754 754 752 752 751 750 749 748 747 746 745 743 741 740 739 737 736 734 733 731 730 728
739 739 739 738 739 740 740 741 741 742 742 742 743 743 743 744 744 745 745 746 747 747 748 749 750 750 750 751 752 752 753 754 754 754 755 756 756 757 758 758 758 758 759 759 760 760 761 761 762 761 761 761 761 761 761 760 759 759 758 757 756 756 755 755 754 753 752 752 751 750 749 748 747 746 744 743 742 741 739 738 737 735 734 732 730
738 739 739 738 738 738 738 739 740 740 740 741 742 742 742 742 742 743 744 744 745 746 747 748 748 749 749 750 750 751 751 752 752 753 754 754 755 756 757 757 757 758 757 758 759 760 760 761 761 761 760 761 761 761 761 761 760 759 758 757 757 756 755 755 754 754 753 752 752 751 750 749 747 747 745 744 743 742 741 740 739 737 736 734 733
738 738 738 738 737 737 737 737 737 738 738 739 740 740 740 740 740 741 742 743 743 744 745 746 747 747 748 748 749 750 750 751 751 752 752 752 754 755 755 756 757 757 757 758 759 759 759 760 760 760 760 760 761 762 762 761 760 759 758 758 757 756 756 755 755 754 754 753 752 751 750 749 748 747 746 745 745 744 743 742 741 739 738 737 735
737 737 738 737 736 736 736 735 735 735 736 736 737 737 738 738 738 739 739 740 741 742 743 744 744 745 746 746 747 748 749 749 750 751 751 751 752 753 754 755 756 757 757 757 758 758 759 759 759 759 759 760 761 761 762 761 761 760 759 758 758 756 756 756 755 755 754 753 752 751 751 750 749 748 747 747 746 746 745 744 742 741 740 739 738